Marion, OH

9:38 AM EDT on May 23, 2017 (GMT -0400)
Marion Municipal

Weather History for KMNN - September, 2013

Change the Weather History Date:

Sunday, September 8, 2013

  Actual Average (KDLZ) Record (KDLZ)
Temperature  
Mean Temperature 68 °F -  
Max Temperature 77 °F 79 °F 99 °F (1939)
Min Temperature 57 °F 53 °F 37 °F (1956)
Cooling Degree Days 3    
Growing Degree Days 18 (Base 50)    
Moisture  
Dew Point 63 °F    
Average Humidity 82    
Maximum Humidity 94    
Minimum Humidity 67    
Precipitation  
Precipitation 0.00 in - - ()
Sea Level Pressure  
Sea Level Pressure 30.01 in    
Wind  
Wind Speed 5 mph (NNE)    
Max Wind Speed 14 mph    
Max Gust Speed -    
Visibility 5 miles    
Events      
Averages and records for this station are not official NWS values.
T = Trace of Precipitation, MM = Missing Value Source: NWS Daily Summary

Daily Weather History Graph

Daily Weather History Graph

Search for Another Location

Airport or City:

Trip Planner

Search our weather history database for the weather conditions in past years. The results will help you decide how hot, cold, wet, or windy it might be!

Date:

Astronomy

Sep. 08, 2013 Rise Set
Actual Time 7:06 AM EDT 7:52 PM EDT
Civil Twilight 6:38 AM EDT 8:20 PM EDT
Nautical Twilight 6:05 AM EDT 8:52 PM EDT
Astronomical Twilight 5:31 AM EDT 9:26 PM EDT
Moon 10:23 AM EDT (9/8) 9:25 PM EDT (9/8)
Length of Visible Light 13h 41m
Length of Day
12h 46m
Waxing Crescent, 11% of the Moon is Illuminated
Sep 8
Waxing Crescent
Sep 12
First Quarter
Sep 19
Full
Sep 26
Last Quarter
Oct 4
New

Hourly Weather History & Observations

Time (EDT) Temp. Dew Point Humidity Pressure Visibility Wind Dir Wind Speed Gust Speed Precip Events Conditions
12:53 AM 70.0 °F 64.0 °F 81% 29.96 in 5.0 mi Calm Calm - N/A   Haze
1:53 AM 72.0 °F 63.0 °F 73% 29.95 in 6.0 mi WSW 4.6 mph - N/A   Haze
2:53 AM 72.0 °F 63.0 °F 73% 29.95 in 6.0 mi West 3.5 mph - N/A   Haze
3:53 AM 69.1 °F 63.0 °F 81% 29.93 in 6.0 mi West 4.6 mph - N/A   Haze
4:53 AM 68.0 °F 62.1 °F 81% 29.94 in 5.0 mi West 5.8 mph - N/A   Haze
5:53 AM 64.9 °F 62.1 °F 90% 29.95 in 4.0 mi Calm Calm - N/A   Clear
6:53 AM 63.0 °F 60.1 °F 90% 29.98 in 3.0 mi Calm Calm - N/A   Clear
7:23 AM 62.6 °F 60.8 °F 94% 30.00 in 2.5 mi Calm Calm - N/A   Clear
7:53 AM 64.9 °F 62.1 °F 90% 29.99 in 2.5 mi NW 3.5 mph - N/A   Clear
8:43 AM 66.2 °F 62.6 °F 88% 30.01 in 2.5 mi NNW 4.6 mph - N/A   Mostly Cloudy
8:51 AM 68.0 °F 62.6 °F 83% 30.01 in 3.0 mi North 4.6 mph - N/A   Haze
8:53 AM 68.0 °F 63.0 °F 84% 30.00 in 3.0 mi North 4.6 mph - N/A   Haze
9:06 AM 68.0 °F 64.4 °F 88% 30.02 in 2.5 mi North 5.8 mph - N/A   Overcast
9:16 AM 68.0 °F 64.4 °F 88% 30.02 in 2.5 mi NNE 3.5 mph - N/A   Overcast
9:53 AM 70.0 °F 66.0 °F 87% 30.01 in 2.0 mi NNE 8.1 mph - N/A   Overcast
10:53 AM 72.0 °F 66.9 °F 84% 30.02 in 3.0 mi NE 9.2 mph - N/A   Haze
11:02 AM 71.6 °F 66.2 °F 83% 30.03 in 2.5 mi NNE 11.5 mph - N/A   Overcast
11:33 AM 71.6 °F 66.2 °F 83% 30.04 in 3.0 mi North 10.4 mph - N/A   Overcast
11:41 AM 69.8 °F 66.2 °F 88% 30.04 in 2.5 mi NNE 12.7 mph - N/A   Overcast
11:51 AM 69.8 °F 66.2 °F 88% 30.04 in 4.0 mi NNE 11.5 mph - N/A   Overcast
11:53 AM 70.0 °F 66.9 °F 90% 30.03 in 4.0 mi NNE 11.5 mph - N/A   Overcast
12:53 PM 71.1 °F 66.9 °F 87% 30.03 in 6.0 mi NE 10.4 mph - N/A   Overcast
1:53 PM 73.0 °F 66.9 °F 81% 30.03 in 5.0 mi NNE 9.2 mph - N/A   Haze
2:04 PM 71.6 °F 66.2 °F 83% 30.05 in 6.0 mi NE 11.5 mph - N/A   Haze
2:21 PM 73.4 °F 66.2 °F 78% 30.05 in 7.0 mi NE 9.2 mph - N/A   Overcast
2:53 PM 73.9 °F 64.9 °F 73% 30.03 in 7.0 mi NNE 11.5 mph - N/A   Overcast
3:53 PM 75.0 °F 64.0 °F 69% 30.02 in 7.0 mi NE 12.7 mph - N/A   Overcast
4:53 PM 75.9 °F 64.0 °F 67% 30.02 in 7.0 mi NNE 13.8 mph - N/A   Mostly Cloudy
5:53 PM 73.9 °F 63.0 °F 68% 30.01 in 7.0 mi NE 10.4 mph - N/A   Clear
6:53 PM 72.0 °F 62.1 °F 71% 30.02 in 7.0 mi NE 10.4 mph - N/A   Clear
7:53 PM 68.0 °F 60.1 °F 76% 30.04 in 8.0 mi NE 9.2 mph - N/A   Clear
8:53 PM 64.0 °F 57.9 °F 80% 30.05 in 10.0 mi NE 8.1 mph - N/A   Clear
9:53 PM 62.1 °F 57.9 °F 86% 30.05 in 10.0 mi NE 4.6 mph - N/A   Clear
10:53 PM 61.0 °F 55.9 °F 83% 30.05 in 10.0 mi ENE 5.8 mph - N/A   Clear
11:53 PM 57.9 °F 55.0 °F 90% 30.06 in 10.0 mi Calm Calm - N/A   Clear